contact:dominique.lefevre@mio.osupytheas.fr, maurice.libes@osupytheas.fr, didier.mallarino@osupytheas.fr
Project:EMSO http://www.emso-fr.org/EMSO-France
Depth: 2436.0 m
Title:EMSO Ligure Ouest : Data MII capteur MICROCAT
DateTime_Computer,Latitude,Longitude,Temperature,Conductivity,Pressure,DateTime_Instrument
DateTime_Computer,Latitude,Longitude,degC,S m-1,dbar,DateTime_Instrument
2022-06-21T00:02:21Z,42.805,6.029,13.3048,4.60069,2470.684,2022-6-21T02:04:05Z
2022-06-21T00:05:24Z,42.805,6.029,13.3047,4.60066,2470.633,2022-6-21T02:07:08Z
2022-06-21T00:08:27Z,42.805,6.029,13.3046,4.60074,2470.684,2022-6-21T02:10:11Z
2022-06-21T00:11:30Z,42.805,6.029,13.3039,4.60080,2470.646,2022-6-21T02:13:14Z
2022-06-21T00:14:34Z,42.805,6.029,13.3043,4.60077,2470.646,2022-6-21T02:16:18Z
2022-06-21T00:17:37Z,42.805,6.029,13.3051,4.60076,2470.656,2022-6-21T02:19:21Z
2022-06-21T00:20:40Z,42.805,6.029,13.3047,4.60067,2470.661,2022-6-21T02:22:24Z
2022-06-21T00:23:43Z,42.805,6.029,13.3064,4.60069,2470.67,2022-6-21T02:25:27Z
2022-06-21T00:26:46Z,42.805,6.029,13.3052,4.60092,2470.684,2022-6-21T02:28:30Z
2022-06-21T00:29:49Z,42.805,6.029,13.3063,4.60081,2470.661,2022-6-21T02:31:33Z
2022-06-21T00:32:52Z,42.805,6.029,13.3055,4.60080,2470.646,2022-6-21T02:34:36Z
2022-06-21T00:35:55Z,42.805,6.029,13.3051,4.60073,2470.67,2022-6-21T02:37:39Z
2022-06-21T00:38:59Z,42.805,6.029,13.3052,4.60072,2470.67,2022-6-21T02:40:43Z
2022-06-21T00:42:02Z,42.805,6.029,13.3048,4.60077,2470.693,2022-6-21T02:43:46Z
2022-06-21T00:45:05Z,42.805,6.029,13.3055,4.60075,2470.67,2022-6-21T02:46:49Z
2022-06-21T00:48:08Z,42.805,6.029,13.3045,4.60072,2470.67,2022-6-21T02:49:52Z
2022-06-21T00:51:11Z,42.805,6.029,13.3046,4.60076,2470.661,2022-6-21T02:52:55Z
2022-06-21T00:54:14Z,42.805,6.029,13.3050,4.60072,2470.67,2022-6-21T02:55:58Z
2022-06-21T00:57:17Z,42.805,6.029,13.3061,4.60069,2470.661,2022-6-21T02:59:01Z
2022-06-21T01:00:20Z,42.805,6.029,13.3052,4.60074,2470.646,2022-6-21T03:02:04Z
2022-06-21T01:03:24Z,42.805,6.029,13.3052,4.60075,2470.684,2022-6-21T03:05:07Z
2022-06-21T01:06:27Z,42.805,6.029,13.3059,4.60085,2470.67,2022-6-21T03:08:11Z
2022-06-21T01:09:30Z,42.805,6.029,13.3051,4.60078,2470.661,2022-6-21T03:11:14Z
2022-06-21T01:12:33Z,42.805,6.029,13.3051,4.60079,2470.661,2022-6-21T03:14:17Z
2022-06-21T01:15:36Z,42.805,6.029,13.3054,4.60101,2470.646,2022-6-21T03:17:20Z
2022-06-21T01:18:39Z,42.805,6.029,13.3062,4.60070,2470.661,2022-6-21T03:20:23Z
2022-06-21T01:21:42Z,42.805,6.029,13.3044,4.60079,2470.684,2022-6-21T03:23:26Z
2022-06-21T01:24:45Z,42.805,6.029,13.3047,4.60092,2470.646,2022-6-21T03:26:29Z
2022-06-21T01:27:48Z,42.805,6.029,13.3096,4.60080,2470.684,2022-6-21T03:29:32Z
2022-06-21T01:30:52Z,42.805,6.029,13.3070,4.60086,2470.646,2022-6-21T03:32:36Z
2022-06-21T01:33:55Z,42.805,6.029,13.3031,4.60085,2470.661,2022-6-21T03:35:39Z
2022-06-21T01:36:58Z,42.805,6.029,13.3069,4.60083,2470.624,2022-6-21T03:38:42Z
2022-06-21T01:40:01Z,42.805,6.029,13.3134,4.60094,2470.684,2022-6-21T03:41:45Z
2022-06-21T01:43:04Z,42.805,6.029,13.3070,4.60079,2470.661,2022-6-21T03:44:48Z
2022-06-21T01:46:07Z,42.805,6.029,13.3071,4.60086,2470.624,2022-6-21T03:47:51Z
2022-06-21T01:49:10Z,42.805,6.029,13.3070,4.60103,2470.684,2022-6-21T03:50:54Z
2022-06-21T01:52:13Z,42.805,6.029,13.3052,4.60084,2470.661,2022-6-21T03:53:57Z
2022-06-21T01:55:17Z,42.805,6.029,13.3081,4.60096,2470.661,2022-6-21T03:57:01Z
2022-06-21T01:58:20Z,42.805,6.029,13.3061,4.60086,2470.646,2022-6-21T04:00:04Z
2022-06-21T02:01:23Z,42.805,6.029,13.3053,4.60090,2470.637,2022-6-21T04:03:07Z
2022-06-21T02:04:26Z,42.805,6.029,13.3073,4.60074,2470.646,2022-6-21T04:06:10Z
2022-06-21T02:07:29Z,42.805,6.029,13.3044,4.60084,2470.646,2022-6-21T04:09:13Z
2022-06-21T02:10:32Z,42.805,6.029,13.3082,4.60090,2470.646,2022-6-21T04:12:16Z
2022-06-21T02:13:35Z,42.805,6.029,13.3062,4.60079,2470.637,2022-6-21T04:15:19Z
2022-06-21T02:16:38Z,42.805,6.029,13.3056,4.60094,2470.624,2022-6-21T04:18:22Z
2022-06-21T02:19:42Z,42.805,6.029,13.3051,4.60090,2470.684,2022-6-21T04:21:26Z
2022-06-21T02:22:45Z,42.805,6.029,13.3056,4.60077,2470.637,2022-6-21T04:24:29Z
2022-06-21T02:25:48Z,42.805,6.029,13.3025,4.60119,2470.624,2022-6-21T04:27:32Z
2022-06-21T02:28:51Z,42.805,6.029,13.3025,4.60082,2470.637,2022-6-21T04:30:35Z
2022-06-21T02:31:54Z,42.805,6.029,13.3015,4.60092,2470.614,2022-6-21T04:33:38Z
2022-06-21T02:34:57Z,42.805,6.029,13.3021,4.60095,2470.661,2022-6-21T04:36:41Z
2022-06-21T02:38:00Z,42.805,6.029,13.3019,4.60079,2470.661,2022-6-21T04:39:44Z
2022-06-21T02:41:03Z,42.805,6.029,13.3014,4.60075,2470.661,2022-6-21T04:42:47Z
2022-06-21T02:44:07Z,42.805,6.029,13.3027,4.60100,2470.661,2022-6-21T04:45:50Z
2022-06-21T02:47:10Z,42.805,6.029,13.3011,4.60080,2470.633,2022-6-21T04:48:54Z
2022-06-21T02:50:13Z,42.805,6.029,13.3013,4.60085,2470.637,2022-6-21T04:51:57Z
2022-06-21T02:53:16Z,42.805,6.029,13.3011,4.60075,2470.624,2022-6-21T04:55:00Z
2022-06-21T02:56:19Z,42.805,6.029,13.3008,4.60057,2470.684,2022-6-21T04:58:03Z
2022-06-21T02:59:22Z,42.805,6.029,13.3010,4.60062,2470.646,2022-6-21T05:01:06Z
2022-06-21T03:02:25Z,42.805,6.029,13.3011,4.60059,2470.624,2022-6-21T05:04:09Z
2022-06-21T03:05:28Z,42.805,6.029,13.3007,4.60055,2470.646,2022-6-21T05:07:12Z
2022-06-21T03:08:31Z,42.805,6.029,13.3009,4.60061,2470.646,2022-6-21T05:10:15Z
2022-06-21T03:11:35Z,42.805,6.029,13.3004,4.60052,2470.624,2022-6-21T05:13:19Z
2022-06-21T03:14:38Z,42.805,6.029,13.3007,4.60049,2470.646,2022-6-21T05:16:22Z
2022-06-21T03:17:41Z,42.805,6.029,13.3009,4.60049,2470.6,2022-6-21T05:19:25Z
2022-06-21T03:20:44Z,42.805,6.029,13.3011,4.60052,2470.614,2022-6-21T05:22:28Z
2022-06-21T03:23:47Z,42.805,6.029,13.3014,4.60053,2470.614,2022-6-21T05:25:31Z
2022-06-21T03:26:50Z,42.805,6.029,13.3010,4.60052,2470.637,2022-6-21T05:28:34Z
2022-06-21T03:29:53Z,42.805,6.029,13.3012,4.60051,2470.637,2022-6-21T05:31:37Z
2022-06-21T03:32:56Z,42.805,6.029,13.3011,4.60055,2470.624,2022-6-21T05:34:40Z
2022-06-21T03:36:00Z,42.805,6.029,13.3011,4.60050,2470.637,2022-6-21T05:37:44Z
2022-06-21T03:39:03Z,42.805,6.029,13.3011,4.60051,2470.577,2022-6-21T05:40:47Z
2022-06-21T03:42:06Z,42.805,6.029,13.3009,4.60050,2470.591,2022-6-21T05:43:50Z
2022-06-21T03:45:09Z,42.805,6.029,13.3009,4.60052,2470.6,2022-6-21T05:46:53Z
2022-06-21T03:48:12Z,42.805,6.029,13.3007,4.60054,2470.577,2022-6-21T05:49:56Z
2022-06-21T03:51:15Z,42.805,6.029,13.3009,4.60052,2470.577,2022-6-21T05:52:59Z
2022-06-21T03:54:18Z,42.805,6.029,13.3010,4.60059,2470.577,2022-6-21T05:56:02Z
2022-06-21T03:57:21Z,42.805,6.029,13.3011,4.60056,2470.591,2022-6-21T05:59:05Z
2022-06-21T04:00:25Z,42.805,6.029,13.3011,4.60056,2470.577,2022-6-21T06:02:09Z
2022-06-21T04:03:28Z,42.805,6.029,13.3010,4.60053,2470.539,2022-6-21T06:05:12Z
2022-06-21T04:06:31Z,42.805,6.029,13.3011,4.60052,2470.6,2022-6-21T06:08:15Z
2022-06-21T04:09:34Z,42.805,6.029,13.3010,4.60054,2470.6,2022-6-21T06:11:18Z
2022-06-21T04:12:37Z,42.805,6.029,13.3007,4.60063,2470.577,2022-6-21T06:14:21Z
2022-06-21T04:15:40Z,42.805,6.029,13.3012,4.60057,2470.577,2022-6-21T06:17:24Z
2022-06-21T04:18:43Z,42.805,6.029,13.3010,4.60058,2470.577,2022-6-21T06:20:27Z
2022-06-21T04:21:46Z,42.805,6.029,13.3005,4.60054,2470.591,2022-6-21T06:23:30Z
2022-06-21T04:24:50Z,42.805,6.029,13.3011,4.60062,2470.591,2022-6-21T06:26:34Z
2022-06-21T04:27:53Z,42.805,6.029,13.3011,4.60060,2470.567,2022-6-21T06:29:37Z
2022-06-21T04:30:56Z,42.805,6.029,13.3009,4.60049,2470.591,2022-6-21T06:32:40Z
2022-06-21T04:33:59Z,42.805,6.029,13.3007,4.60058,2470.577,2022-6-21T06:35:43Z
2022-06-21T04:37:02Z,42.805,6.029,13.3012,4.60062,2470.553,2022-6-21T06:38:46Z
2022-06-21T04:40:05Z,42.805,6.029,13.3009,4.60057,2470.553,2022-6-21T06:41:49Z
2022-06-21T04:43:08Z,42.805,6.029,13.3008,4.60062,2470.544,2022-6-21T06:44:52Z
2022-06-21T04:46:11Z,42.805,6.029,13.3009,4.60060,2470.553,2022-6-21T06:47:55Z
2022-06-21T04:49:15Z,42.805,6.029,13.3011,4.60062,2470.553,2022-6-21T06:50:59Z
2022-06-21T04:52:18Z,42.805,6.029,13.3014,4.60062,2470.567,2022-6-21T06:54:02Z
2022-06-21T04:55:21Z,42.805,6.029,13.3011,4.60062,2470.507,2022-6-21T06:57:05Z
2022-06-21T04:58:24Z,42.805,6.029,13.3011,4.60067,2470.53,2022-6-21T07:00:08Z
2022-06-21T05:01:27Z,42.805,6.029,13.3009,4.60063,2470.553,2022-6-21T07:03:11Z
2022-06-21T05:04:30Z,42.805,6.029,13.3015,4.60061,2470.544,2022-6-21T07:06:14Z
2022-06-21T05:07:33Z,42.805,6.029,13.3010,4.60068,2470.53,2022-6-21T07:09:17Z
2022-06-21T05:10:36Z,42.805,6.029,13.3011,4.60075,2470.53,2022-6-21T07:12:20Z
2022-06-21T05:13:39Z,42.805,6.029,13.3011,4.60082,2470.53,2022-6-21T07:15:23Z
2022-06-21T05:16:43Z,42.805,6.029,13.3013,4.60079,2470.53,2022-6-21T07:18:27Z
2022-06-21T05:19:46Z,42.805,6.029,13.3015,4.60085,2470.553,2022-6-21T07:21:30Z
2022-06-21T05:22:49Z,42.805,6.029,13.3013,4.60074,2470.553,2022-6-21T07:24:33Z
2022-06-21T05:25:52Z,42.805,6.029,13.3015,4.60099,2470.53,2022-6-21T07:27:36Z
2022-06-21T05:28:55Z,42.805,6.029,13.3014,4.60090,2470.553,2022-6-21T07:30:39Z
2022-06-21T05:31:58Z,42.805,6.029,13.3014,4.60104,2470.567,2022-6-21T07:33:42Z
2022-06-21T05:35:01Z,42.805,6.029,13.3021,4.60110,2470.53,2022-6-21T07:36:45Z
2022-06-21T05:38:04Z,42.805,6.029,13.3009,4.60094,2470.544,2022-6-21T07:39:48Z
2022-06-21T05:41:08Z,42.805,6.029,13.3014,4.60114,2470.507,2022-6-21T07:42:52Z
2022-06-21T05:44:11Z,42.805,6.029,13.3014,4.60140,2470.52,2022-6-21T07:45:55Z
2022-06-21T05:47:14Z,42.805,6.029,13.3017,4.60102,2470.544,2022-6-21T07:48:58Z
2022-06-21T05:50:17Z,42.805,6.029,13.3015,4.60142,2470.52,2022-6-21T07:52:01Z
2022-06-21T05:53:20Z,42.805,6.029,13.3022,4.60169,2470.53,2022-6-21T07:55:04Z
2022-06-21T05:56:23Z,42.805,6.029,13.3031,4.60200,2470.507,2022-6-21T07:58:07Z
2022-06-21T05:59:26Z,42.805,6.029,13.3042,4.60165,2470.52,2022-6-21T08:01:10Z
2022-06-21T06:02:29Z,42.805,6.029,13.3051,4.60122,2470.483,2022-6-21T08:04:13Z
2022-06-21T06:05:32Z,42.805,6.029,13.3036,4.60125,2470.507,2022-6-21T08:07:16Z
2022-06-21T06:08:36Z,42.805,6.029,13.3039,4.60101,2470.497,2022-6-21T08:10:20Z
2022-06-21T06:11:39Z,42.805,6.029,13.3059,4.60079,2470.507,2022-6-21T08:13:23Z
2022-06-21T06:14:42Z,42.805,6.029,13.3067,4.60072,2470.52,2022-6-21T08:16:26Z
2022-06-21T06:17:45Z,42.805,6.029,13.3085,4.60079,2470.507,2022-6-21T08:19:29Z
2022-06-21T06:20:48Z,42.805,6.029,13.3085,4.60081,2470.507,2022-6-21T08:22:32Z
2022-06-21T06:23:51Z,42.805,6.029,13.3089,4.60107,2470.497,2022-6-21T08:25:35Z
2022-06-21T06:26:54Z,42.805,6.029,13.3089,4.60096,2470.474,2022-6-21T08:28:38Z
2022-06-21T06:29:57Z,42.805,6.029,13.3084,4.60101,2470.497,2022-6-21T08:31:41Z
2022-06-21T06:33:01Z,42.805,6.029,13.3069,4.60094,2470.507,2022-6-21T08:34:45Z
2022-06-21T06:36:04Z,42.805,6.029,13.3073,4.60092,2470.483,2022-6-21T08:37:48Z
2022-06-21T06:39:07Z,42.805,6.029,13.3101,4.60101,2470.483,2022-6-21T08:40:51Z
2022-06-21T06:42:10Z,42.805,6.029,13.3104,4.60111,2470.497,2022-6-21T08:43:54Z
2022-06-21T06:45:13Z,42.805,6.029,13.3067,4.60096,2470.497,2022-6-21T08:46:57Z
2022-06-21T06:48:16Z,42.805,6.029,13.3061,4.60101,2470.507,2022-6-21T08:50:00Z
2022-06-21T06:51:19Z,42.805,6.029,13.3071,4.60088,2470.483,2022-6-21T08:53:03Z
2022-06-21T06:54:22Z,42.805,6.029,13.3072,4.60085,2470.507,2022-6-21T08:56:06Z
2022-06-21T06:57:26Z,42.805,6.029,13.3073,4.60116,2470.507,2022-6-21T08:59:10Z
2022-06-21T07:00:29Z,42.805,6.029,13.3051,4.60095,2470.52,2022-6-21T09:02:13Z
2022-06-21T07:03:32Z,42.805,6.029,13.3056,4.60081,2470.497,2022-6-21T09:05:16Z
2022-06-21T07:06:35Z,42.805,6.029,13.3053,4.60090,2470.474,2022-6-21T09:08:19Z
2022-06-21T07:09:38Z,42.805,6.029,13.3056,4.60105,2470.474,2022-6-21T09:11:22Z
2022-06-21T07:12:41Z,42.805,6.029,13.3060,4.60113,2470.497,2022-6-21T09:14:25Z
2022-06-21T07:15:44Z,42.805,6.029,13.3054,4.60104,2470.497,2022-6-21T09:17:28Z
2022-06-21T07:18:47Z,42.805,6.029,13.3053,4.60136,2470.474,2022-6-21T09:20:31Z
2022-06-21T07:21:51Z,42.805,6.029,13.3073,4.60108,2470.483,2022-6-21T09:23:35Z
2022-06-21T07:24:54Z,42.805,6.029,13.3059,4.60117,2470.46,2022-6-21T09:26:38Z
2022-06-21T07:27:57Z,42.805,6.029,13.3048,4.60142,2470.497,2022-6-21T09:29:41Z
2022-06-21T07:31:00Z,42.805,6.029,13.3033,4.60149,2470.46,2022-6-21T09:32:44Z
2022-06-21T07:34:03Z,42.805,6.029,13.3055,4.60110,2470.474,2022-6-21T09:35:47Z
2022-06-21T07:37:06Z,42.805,6.029,13.3042,4.60094,2470.474,2022-6-21T09:38:50Z
2022-06-21T07:40:09Z,42.805,6.029,13.3051,4.60132,2470.46,2022-6-21T09:41:53Z
2022-06-21T07:43:12Z,42.805,6.029,13.3070,4.60149,2470.497,2022-6-21T09:44:56Z
2022-06-21T07:46:16Z,42.805,6.029,13.3046,4.60143,2470.497,2022-6-21T09:48:00Z
2022-06-21T07:49:19Z,42.805,6.029,13.3043,4.60112,2470.497,2022-6-21T09:51:03Z
2022-06-21T07:52:22Z,42.805,6.029,13.3048,4.60135,2470.483,2022-6-21T09:54:06Z
2022-06-21T07:55:25Z,42.805,6.029,13.3053,4.60135,2470.46,2022-6-21T09:57:09Z
2022-06-21T07:58:28Z,42.805,6.029,13.3050,4.60119,2470.46,2022-6-21T10:00:12Z
2022-06-21T08:01:31Z,42.805,6.029,13.3029,4.60099,2470.483,2022-6-21T10:03:15Z
2022-06-21T08:04:34Z,42.805,6.029,13.3031,4.60117,2470.437,2022-6-21T10:06:18Z
2022-06-21T08:07:37Z,42.805,6.029,13.3069,4.60164,2470.483,2022-6-21T10:09:21Z
2022-06-21T08:10:41Z,42.805,6.029,13.3030,4.60168,2470.46,2022-6-21T10:12:25Z
2022-06-21T08:13:44Z,42.805,6.029,13.3032,4.60144,2470.46,2022-6-21T10:15:28Z
2022-06-21T08:16:47Z,42.805,6.029,13.3035,4.60127,2470.474,2022-6-21T10:18:31Z
2022-06-21T08:19:50Z,42.805,6.029,13.3043,4.60111,2470.45,2022-6-21T10:21:34Z
2022-06-21T08:22:53Z,42.805,6.029,13.3036,4.60177,2470.483,2022-6-21T10:24:37Z
2022-06-21T08:25:56Z,42.805,6.029,13.3029,4.60126,2470.497,2022-6-21T10:27:40Z
2022-06-21T08:28:59Z,42.805,6.029,13.3034,4.60142,2470.483,2022-6-21T10:30:43Z
2022-06-21T08:32:02Z,42.805,6.029,13.3037,4.60105,2470.52,2022-6-21T10:33:46Z
2022-06-21T08:35:06Z,42.805,6.029,13.3048,4.60155,2470.507,2022-6-21T10:36:50Z
2022-06-21T08:38:09Z,42.805,6.029,13.3044,4.60144,2470.483,2022-6-21T10:39:53Z
2022-06-21T08:41:12Z,42.805,6.029,13.3041,4.60161,2470.507,2022-6-21T10:42:56Z
2022-06-21T08:44:15Z,42.805,6.029,13.3039,4.60142,2470.474,2022-6-21T10:45:59Z
2022-06-21T08:47:18Z,42.805,6.029,13.3038,4.60164,2470.474,2022-6-21T10:49:02Z
2022-06-21T08:50:21Z,42.805,6.029,13.3050,4.60143,2470.52,2022-6-21T10:52:05Z
2022-06-21T08:53:24Z,42.805,6.029,13.3061,4.60099,2470.497,2022-6-21T10:55:08Z
2022-06-21T08:56:27Z,42.805,6.029,13.3052,4.60112,2470.474,2022-6-21T10:58:11Z
2022-06-21T08:59:31Z,42.805,6.029,13.3052,4.60121,2470.46,2022-6-21T11:01:15Z
2022-06-21T09:02:34Z,42.805,6.029,13.3031,4.60110,2470.474,2022-6-21T11:04:18Z
2022-06-21T09:05:37Z,42.805,6.029,13.3056,4.60122,2470.46,2022-6-21T11:07:21Z
2022-06-21T09:08:40Z,42.805,6.029,13.3031,4.60116,2470.507,2022-6-21T11:10:24Z
2022-06-21T09:11:43Z,42.805,6.029,13.3039,4.60098,2470.52,2022-6-21T11:13:27Z
2022-06-21T09:14:46Z,42.805,6.029,13.3043,4.60148,2470.497,2022-6-21T11:16:30Z
2022-06-21T09:17:49Z,42.805,6.029,13.3083,4.60165,2470.497,2022-6-21T11:19:33Z
2022-06-21T09:20:52Z,42.805,6.029,13.3036,4.60150,2470.483,2022-6-21T11:22:36Z
2022-06-21T09:23:56Z,42.805,6.029,13.3049,4.60111,2470.46,2022-6-21T11:25:40Z
2022-06-21T09:26:59Z,42.805,6.029,13.3054,4.60123,2470.483,2022-6-21T11:28:43Z
2022-06-21T09:30:02Z,42.805,6.029,13.3030,4.60122,2470.46,2022-6-21T11:31:46Z
2022-06-21T09:33:05Z,42.805,6.029,13.3048,4.60092,2470.483,2022-6-21T11:34:49Z
2022-06-21T09:36:08Z,42.805,6.029,13.3055,4.60094,2470.483,2022-6-21T11:37:52Z
2022-06-21T09:39:11Z,42.805,6.029,13.3066,4.60121,2470.474,2022-6-21T11:40:55Z
2022-06-21T09:42:14Z,42.805,6.029,13.3059,4.60139,2470.46,2022-6-21T11:43:58Z
2022-06-21T09:45:17Z,42.805,6.029,13.3048,4.60137,2470.46,2022-6-21T11:47:01Z
2022-06-21T09:48:21Z,42.805,6.029,13.3051,4.60081,2470.46,2022-6-21T11:50:05Z
2022-06-21T09:51:24Z,42.805,6.029,13.3029,4.60114,2470.483,2022-6-21T11:53:08Z
2022-06-21T09:54:27Z,42.805,6.029,13.3041,4.60103,2470.52,2022-6-21T11:56:11Z
2022-06-21T09:57:30Z,42.805,6.029,13.3046,4.60094,2470.53,2022-6-21T11:59:14Z
2022-06-21T10:00:33Z,42.805,6.029,13.3046,4.60110,2470.497,2022-6-21T12:02:17Z
2022-06-21T10:03:36Z,42.805,6.029,13.3059,4.60112,2470.497,2022-6-21T12:05:20Z
2022-06-21T10:06:39Z,42.805,6.029,13.3041,4.60099,2470.52,2022-6-21T12:08:23Z
2022-06-21T10:09:42Z,42.805,6.029,13.3044,4.60095,2470.52,2022-6-21T12:11:26Z
2022-06-21T10:12:46Z,42.805,6.029,13.3041,4.60125,2470.483,2022-6-21T12:14:30Z
2022-06-21T10:15:49Z,42.805,6.029,13.3074,4.60140,2470.497,2022-6-21T12:17:33Z
2022-06-21T10:18:52Z,42.805,6.029,13.3072,4.60135,2470.497,2022-6-21T12:20:36Z
2022-06-21T10:21:55Z,42.805,6.029,13.3053,4.60110,2470.507,2022-6-21T12:23:39Z
2022-06-21T10:24:58Z,42.805,6.029,13.3042,4.60143,2470.52,2022-6-21T12:26:42Z
2022-06-21T10:28:01Z,42.805,6.029,13.3058,4.60132,2470.497,2022-6-21T12:29:45Z
2022-06-21T10:31:04Z,42.805,6.029,13.3065,4.60105,2470.497,2022-6-21T12:32:48Z
2022-06-21T10:34:07Z,42.805,6.029,13.3041,4.60137,2470.52,2022-6-21T12:35:51Z
2022-06-21T10:37:11Z,42.805,6.029,13.3055,4.60105,2470.483,2022-6-21T12:38:55Z
2022-06-21T10:40:14Z,42.805,6.029,13.3060,4.60137,2470.497,2022-6-21T12:41:58Z
2022-06-21T10:43:17Z,42.805,6.029,13.3070,4.60180,2470.52,2022-6-21T12:45:01Z
2022-06-21T10:46:20Z,42.805,6.029,13.3057,4.60125,2470.507,2022-6-21T12:48:04Z
2022-06-21T10:49:23Z,42.805,6.029,13.3052,4.60150,2470.507,2022-6-21T12:51:07Z
2022-06-21T10:52:26Z,42.805,6.029,13.3049,4.60112,2470.507,2022-6-21T12:54:10Z
2022-06-21T10:55:29Z,42.805,6.029,13.3054,4.60122,2470.507,2022-6-21T12:57:13Z
2022-06-21T10:58:32Z,42.805,6.029,13.3056,4.60131,2470.507,2022-6-21T13:00:16Z
2022-06-21T11:01:36Z,42.805,6.029,13.3077,4.60119,2470.483,2022-6-21T13:03:20Z
2022-06-21T11:04:39Z,42.805,6.029,13.3045,4.60128,2470.507,2022-6-21T13:06:23Z
2022-06-21T11:07:42Z,42.805,6.029,13.3053,4.60111,2470.507,2022-6-21T13:09:26Z
2022-06-21T11:10:45Z,42.805,6.029,13.3058,4.60110,2470.507,2022-6-21T13:12:29Z
2022-06-21T11:13:48Z,42.805,6.029,13.3039,4.60119,2470.544,2022-6-21T13:15:32Z
2022-06-21T11:16:51Z,42.805,6.029,13.3053,4.60147,2470.507,2022-6-21T13:18:35Z
2022-06-21T11:19:54Z,42.805,6.029,13.3049,4.60132,2470.53,2022-6-21T13:21:38Z
2022-06-21T11:22:57Z,42.805,6.029,13.3063,4.60126,2470.483,2022-6-21T13:24:41Z
2022-06-21T11:26:01Z,42.805,6.029,13.3069,4.60157,2470.507,2022-6-21T13:27:45Z
2022-06-21T11:29:04Z,42.805,6.029,13.3063,4.60115,2470.52,2022-6-21T13:30:48Z
2022-06-21T11:32:07Z,42.805,6.029,13.3070,4.60151,2470.483,2022-6-21T13:33:51Z
2022-06-21T11:35:10Z,42.805,6.029,13.3085,4.60129,2470.544,2022-6-21T13:36:54Z
2022-06-21T11:38:13Z,42.805,6.029,13.3087,4.60126,2470.544,2022-6-21T13:39:57Z
2022-06-21T11:41:16Z,42.805,6.029,13.3044,4.60167,2470.52,2022-6-21T13:43:00Z
2022-06-21T11:44:19Z,42.805,6.029,13.3048,4.60102,2470.507,2022-6-21T13:46:03Z
2022-06-21T11:47:22Z,42.805,6.029,13.3034,4.60139,2470.507,2022-6-21T13:49:06Z
2022-06-21T11:50:26Z,42.805,6.029,13.3042,4.60117,2470.507,2022-6-21T13:52:10Z
2022-06-21T11:53:29Z,42.805,6.029,13.3084,4.60098,2470.544,2022-6-21T13:55:13Z
2022-06-21T11:56:32Z,42.805,6.029,13.3056,4.60102,2470.544,2022-6-21T13:58:16Z
2022-06-21T11:59:35Z,42.805,6.029,13.3052,4.60101,2470.507,2022-6-21T14:01:19Z
2022-06-21T12:02:38Z,42.805,6.029,13.3061,4.60110,2470.544,2022-6-21T14:04:22Z
2022-06-21T12:05:41Z,42.805,6.029,13.3056,4.60086,2470.52,2022-6-21T14:07:25Z
2022-06-21T12:08:44Z,42.805,6.029,13.3051,4.60109,2470.507,2022-6-21T14:10:28Z
2022-06-21T12:11:47Z,42.805,6.029,13.3061,4.60106,2470.52,2022-6-21T14:13:31Z
2022-06-21T12:14:51Z,42.805,6.029,13.3063,4.60125,2470.497,2022-6-21T14:16:35Z
2022-06-21T12:17:54Z,42.805,6.029,13.3069,4.60086,2470.52,2022-6-21T14:19:38Z
2022-06-21T12:20:57Z,42.805,6.029,13.3069,4.60088,2470.52,2022-6-21T14:22:41Z
2022-06-21T12:24:00Z,42.805,6.029,13.3042,4.60099,2470.507,2022-6-21T14:25:44Z
2022-06-21T12:27:03Z,42.805,6.029,13.3048,4.60087,2470.544,2022-6-21T14:28:47Z
2022-06-21T12:30:06Z,42.805,6.029,13.3056,4.60074,2470.52,2022-6-21T14:31:50Z
2022-06-21T12:33:09Z,42.805,6.029,13.3062,4.60081,2470.497,2022-6-21T14:34:53Z
2022-06-21T12:36:13Z,42.805,6.029,13.3049,4.60102,2470.52,2022-6-21T14:37:57Z
2022-06-21T12:39:16Z,42.805,6.029,13.3047,4.60102,2470.53,2022-6-21T14:41:00Z
2022-06-21T12:42:19Z,42.805,6.029,13.3064,4.60062,2470.507,2022-6-21T14:44:03Z
2022-06-21T12:45:22Z,42.805,6.029,13.3058,4.60060,2470.544,2022-6-21T14:47:06Z
2022-06-21T12:48:25Z,42.805,6.029,13.3059,4.60077,2470.52,2022-6-21T14:50:09Z
2022-06-21T12:51:28Z,42.805,6.029,13.3042,4.60067,2470.507,2022-6-21T14:53:12Z
2022-06-21T12:54:31Z,42.805,6.029,13.3051,4.60081,2470.52,2022-6-21T14:56:15Z
2022-06-21T12:57:34Z,42.805,6.029,13.3040,4.60075,2470.53,2022-6-21T14:59:18Z
2022-06-21T13:00:37Z,42.805,6.029,13.3026,4.60075,2470.52,2022-6-21T15:02:22Z
2022-06-21T13:03:41Z,42.805,6.029,13.3029,4.60092,2470.507,2022-6-21T15:05:25Z
2022-06-21T13:06:44Z,42.805,6.029,13.3035,4.60061,2470.483,2022-6-21T15:08:28Z
2022-06-21T13:09:47Z,42.805,6.029,13.3030,4.60074,2470.507,2022-6-21T15:11:31Z
2022-06-21T13:12:50Z,42.805,6.029,13.3024,4.60067,2470.507,2022-6-21T15:14:34Z
2022-06-21T13:15:53Z,42.805,6.029,13.3025,4.60084,2470.52,2022-6-21T15:17:37Z
2022-06-21T13:18:56Z,42.805,6.029,13.3034,4.60079,2470.553,2022-6-21T15:20:40Z
2022-06-21T13:21:59Z,42.805,6.029,13.3026,4.60086,2470.544,2022-6-21T15:23:43Z
2022-06-21T13:25:03Z,42.805,6.029,13.3031,4.60077,2470.544,2022-6-21T15:26:47Z
2022-06-21T13:28:06Z,42.805,6.029,13.3042,4.60068,2470.52,2022-6-21T15:29:50Z
2022-06-21T13:31:09Z,42.805,6.029,13.3046,4.60069,2470.507,2022-6-21T15:32:53Z
2022-06-21T13:34:12Z,42.805,6.029,13.3043,4.60066,2470.507,2022-6-21T15:35:56Z
2022-06-21T13:37:15Z,42.805,6.029,13.3030,4.60060,2470.53,2022-6-21T15:38:59Z
2022-06-21T13:40:18Z,42.805,6.029,13.3036,4.60072,2470.52,2022-6-21T15:42:02Z
2022-06-21T13:43:21Z,42.805,6.029,13.3044,4.60066,2470.567,2022-6-21T15:45:05Z
2022-06-21T13:46:24Z,42.805,6.029,13.3041,4.60085,2470.52,2022-6-21T15:48:08Z
2022-06-21T13:49:28Z,42.805,6.029,13.3051,4.60076,2470.516,2022-6-21T15:51:12Z
2022-06-21T13:52:31Z,42.805,6.029,13.3030,4.60083,2470.52,2022-6-21T15:54:15Z
2022-06-21T13:55:34Z,42.805,6.029,13.3043,4.60067,2470.53,2022-6-21T15:57:18Z
2022-06-21T13:58:37Z,42.805,6.029,13.3039,4.60067,2470.53,2022-6-21T16:00:21Z
2022-06-21T14:01:40Z,42.805,6.029,13.3037,4.60069,2470.507,2022-6-21T16:03:24Z
2022-06-21T14:04:43Z,42.805,6.029,13.3031,4.60069,2470.53,2022-6-21T16:06:27Z
2022-06-21T14:07:46Z,42.805,6.029,13.3030,4.60055,2470.52,2022-6-21T16:09:30Z
2022-06-21T14:10:49Z,42.805,6.029,13.3031,4.60066,2470.544,2022-6-21T16:12:33Z
2022-06-21T14:13:53Z,42.805,6.029,13.3048,4.60064,2470.483,2022-6-21T16:15:37Z
2022-06-21T14:16:56Z,42.805,6.029,13.3038,4.60061,2470.544,2022-6-21T16:18:40Z
2022-06-21T14:19:59Z,42.805,6.029,13.3034,4.60067,2470.544,2022-6-21T16:21:43Z
2022-06-21T14:23:02Z,42.805,6.029,13.3039,4.60066,2470.544,2022-6-21T16:24:46Z
2022-06-21T14:26:05Z,42.805,6.029,13.3049,4.60074,2470.52,2022-6-21T16:27:49Z
2022-06-21T14:29:08Z,42.805,6.029,13.3034,4.60064,2470.544,2022-6-21T16:30:52Z
2022-06-21T14:32:11Z,42.805,6.029,13.3041,4.60078,2470.53,2022-6-21T16:33:55Z
2022-06-21T14:35:14Z,42.805,6.029,13.3054,4.60090,2470.53,2022-6-21T16:36:58Z
2022-06-21T14:38:18Z,42.805,6.029,13.3060,4.60086,2470.52,2022-6-21T16:40:02Z
2022-06-21T14:41:21Z,42.805,6.029,13.3041,4.60081,2470.507,2022-6-21T16:43:05Z
2022-06-21T14:44:24Z,42.805,6.029,13.3071,4.60072,2470.52,2022-6-21T16:46:08Z
2022-06-21T14:47:27Z,42.805,6.029,13.3046,4.60067,2470.53,2022-6-21T16:49:11Z
2022-06-21T14:50:30Z,42.805,6.029,13.3056,4.60073,2470.52,2022-6-21T16:52:14Z
2022-06-21T14:53:33Z,42.805,6.029,13.3044,4.60081,2470.483,2022-6-21T16:55:17Z
2022-06-21T14:56:36Z,42.805,6.029,13.3043,4.60067,2470.507,2022-6-21T16:58:20Z
2022-06-21T14:59:39Z,42.805,6.029,13.3049,4.60070,2470.53,2022-6-21T17:01:23Z
2022-06-21T15:02:43Z,42.805,6.029,13.3048,4.60075,2470.497,2022-6-21T17:04:27Z
2022-06-21T15:05:46Z,42.805,6.029,13.3036,4.60079,2470.497,2022-6-21T17:07:30Z
2022-06-21T15:08:49Z,42.805,6.029,13.3046,4.60076,2470.507,2022-6-21T17:10:33Z
2022-06-21T15:11:52Z,42.805,6.029,13.3038,4.60067,2470.53,2022-6-21T17:13:36Z
2022-06-21T15:14:55Z,42.805,6.029,13.3048,4.60076,2470.53,2022-6-21T17:16:39Z